Satellite: NOAA-10
Catalog number: 16969
Epoch time:      09070.93130429
Element set:    0532
Inclination:      098.7014 deg
RA of node:       098.0662 deg
Eccentricity:    0.0012959
Arg of perigee:   118.5484 deg
Mean anomaly:     241.6994 deg
Mean motion:   14.27381955 rev/day
Decay rate:        5.6e-07 rev/day^2
Epoch rev:           16963
Checksum:              333

Satellite: NOAA-11
Catalog number: 19531
Epoch time:      09070.76038007
Element set:    0544
Inclination:      098.7834 deg
RA of node:       162.2228 deg
Eccentricity:    0.0012063
Arg of perigee:   029.4970 deg
Mean anomaly:     330.6869 deg
Mean motion:   14.14889058 rev/day
Decay rate:      -2.46e-06 rev/day^2
Epoch rev:           05574
Checksum:              313

Satellite: NOAA-12
Catalog number: 21263
Epoch time:      09070.96889374
Element set:    0060
Inclination:      098.7736 deg
RA of node:       078.9789 deg
Eccentricity:    0.0013382
Arg of perigee:   069.1637 deg
Mean anomaly:     291.0975 deg
Mean motion:   14.25569561 rev/day
Decay rate:        2.6e-07 rev/day^2
Epoch rev:           92654
Checksum:              352

Satellite: MET-3/5
Catalog number: 21655
Epoch time:      09070.90879546
Element set:    0613
Inclination:      082.5510 deg
RA of node:       275.2289 deg
Eccentricity:    0.0014655
Arg of perigee:   064.7014 deg
Mean anomaly:     295.5625 deg
Mean motion:   13.17018723 rev/day
Decay rate:        5.1e-07 rev/day^2
Epoch rev:           84482
Checksum:              310

Satellite: MET-2/21
Catalog number: 22782
Epoch time:      09070.91670523
Element set:    0403
Inclination:      082.5428 deg
RA of node:       259.1682 deg
Eccentricity:    0.0020981
Arg of perigee:   259.3376 deg
Mean anomaly:     100.5411 deg
Mean motion:   13.83634264 rev/day
Decay rate:        7.4e-07 rev/day^2
Epoch rev:           78415
Checksum:              298

Satellite: OKEAN-4
Catalog number: 23317
Epoch time:      09071.45889125
Element set:     851
Inclination:      082.5353 deg
RA of node:       064.7497 deg
Eccentricity:    0.0021393
Arg of perigee:   327.5856 deg
Mean anomaly:     032.4052 deg
Mean motion:   14.82679197 rev/day
Decay rate:        9.0e-08 rev/day^2
Epoch rev:           77803
Checksum:              326

Satellite: NOAA-14
Catalog number: 23455
Epoch time:      09070.92904167
Element set:    0544
Inclination:      098.9155 deg
RA of node:       148.9284 deg
Eccentricity:    0.0010338
Arg of perigee:   105.9211 deg
Mean anomaly:     254.3087 deg
Mean motion:   14.13757378 rev/day
Decay rate:      -2.08e-06 rev/day^2
Epoch rev:           73218
Checksum:              315

Satellite: NOAA-15
Catalog number: 25338
Epoch time:      09069.38356814
Element set:     849
Inclination:      098.5794 deg
RA of node:       060.7867 deg
Eccentricity:    0.0010399
Arg of perigee:   351.7447 deg
Mean anomaly:     008.3581 deg
Mean motion:   14.24748531 rev/day
Decay rate:       -3.8e-07 rev/day^2
Epoch rev:           56270
Checksum:              346

Satellite: RESURS
Catalog number: 25394
Epoch time:      09070.71523616
Element set:    0171
Inclination:      098.3527 deg
RA of node:       107.9728 deg
Eccentricity:    0.0001949
Arg of perigee:   110.1492 deg
Mean anomaly:     249.9897 deg
Mean motion:   14.24180445 rev/day
Decay rate:       -3.0e-07 rev/day^2
Epoch rev:           55452
Checksum:              304

Satellite: FENGYUN1
Catalog number: 25730
Epoch time:      09070.92361762
Element set:    0726
Inclination:      098.7482 deg
RA of node:       044.0235 deg
Eccentricity:    0.0022695
Arg of perigee:   131.3882 deg
Mean anomaly:     228.9243 deg
Mean motion:   14.07936289 rev/day
Decay rate:       1.75e-06 rev/day^2
Epoch rev:           50663
Checksum:              312

Satellite: OKEAN-0
Catalog number: 25860
Epoch time:      09070.93350001
Element set:    0622
Inclination:      097.7773 deg
RA of node:       056.0236 deg
Eccentricity:    0.0001628
Arg of perigee:   092.8457 deg
Mean anomaly:     267.2946 deg
Mean motion:   14.73561856 rev/day
Decay rate:        2.4e-07 rev/day^2
Epoch rev:           51882
Checksum:              305

Satellite: NOAA-16
Catalog number: 26536
Epoch time:      09070.75298363
Element set:    0323
Inclination:      099.1761 deg
RA of node:       072.0654 deg
Eccentricity:    0.0010375
Arg of perigee:   190.6312 deg
Mean anomaly:     169.4624 deg
Mean motion:   14.12513601 rev/day
Decay rate:       1.77e-06 rev/day^2
Epoch rev:           43654
Checksum:              294

Satellite: NOAA-17
Catalog number: 27453
Epoch time:      09070.89875405
Element set:    0333
Inclination:      098.4969 deg
RA of node:       133.2722 deg
Eccentricity:    0.0012446
Arg of perigee:   051.4993 deg
Mean anomaly:     308.7272 deg
Mean motion:   14.24047183 rev/day
Decay rate:       1.30e-06 rev/day^2
Epoch rev:           34890
Checksum:              314

Satellite: NOAA-18
Catalog number: 28654
Epoch time:      09070.91623785
Element set:    0820
Inclination:      098.8990 deg
RA of node:       014.9515 deg
Eccentricity:    0.0013487
Arg of perigee:   278.6005 deg
Mean anomaly:     081.3661 deg
Mean motion:   14.11238600 rev/day
Decay rate:       -8.6e-07 rev/day^2
Epoch rev:           19623
Checksum:              318

Satellite: NOAA-19
Catalog number: 33591
Epoch time:      09071.30088403
Element set:      31
Inclination:      098.7373 deg
RA of node:       019.6287 deg
Eccentricity:    0.0014283
Arg of perigee:   154.4877 deg
Mean anomaly:     205.7013 deg
Mean motion:   14.10939685 rev/day
Decay rate:      -2.07e-06 rev/day^2
Epoch rev:             477
Checksum:              304

/EX
SB KEPS @ AMSAT  $ORB09071.M
Orbital Elements  09071.MISC

HR AMSAT ORBITAL ELEMENTS FOR MANNED AND MISCELLANEOUS SATELLITES
FROM WA5QGD FORT WORTH,TX March 12, 2009
Send Subscribe/unsubscribe to KEPS at 
http://www.amsat.org/mailman/listinfo/keps
BID: ORB09071.M
TO ALL RADIO AMATEURS BT

Satellite: HUBBLE
Catalog number: 20580
Epoch time:      09070.94198851
Element set:    0348
Inclination:      028.4710 deg
RA of node:       016.7521 deg
Eccentricity:    0.0003453
Arg of perigee:   350.1026 deg
Mean anomaly:     009.9493 deg
Mean motion:   15.00461980 rev/day
Decay rate:       2.91e-06 rev/day^2
Epoch rev:           83523
Checksum:              277

Satellite: PO-34
Catalog number: 25520
Epoch time:      09071.43672936
Element set:     202
Inclination:      028.4594 deg
RA of node:       182.7248 deg
Eccentricity:    0.0004914
Arg of perigee:   325.4465 deg
Mean anomaly:     034.5796 deg
Mean motion:   15.17307125 rev/day
Decay rate:       3.92e-06 rev/day^2
Epoch rev:           57394
Checksum:              311

Satellite: ISS
Catalog number: 25544
Epoch time:      09070.80611111
Element set:    0438
Inclination:      051.6397 deg
RA of node:       085.8155 deg
Eccentricity:    0.0009687
Arg of perigee:   113.1247 deg
Mean anomaly:     226.4121 deg
Mean motion:   15.71391070 rev/day
Decay rate:      7.951e-05 rev/day^2
Epoch rev:           59062
Checksum:              286

Satellite: CO-58
Catalog number: 28895
Epoch time:      09070.72986808
Element set:    0253
Inclination:      098.0724 deg
RA of node:       324.0126 deg
Eccentricity:    0.0016849
Arg of perigee:   294.7779 deg
Mean anomaly:     065.1602 deg
Mean motion:   14.59747686 rev/day
Decay rate:        1.2e-07 rev/day^2
Epoch rev:           17951
Checksum:              354

Satellite: FALCON
Catalog number: 30776
Epoch time:      09070.92971490
Element set:    0528
Inclination:      035.4343 deg
RA of node:       329.4642 deg
Eccentricity:    0.0000624
Arg of perigee:   211.5410 deg
Mean anomaly:     148.5269 deg
Mean motion:   15.03185557 rev/day
Decay rate:       2.84e-06 rev/day^2
Epoch rev:           11045
Checksum:              282

Satellite: MAST
Catalog number: 31126
Epoch time:      09069.17926044
Element set:    0546
Inclination:      098.0012 deg
RA of node:       128.4626 deg
Eccentricity:    0.0094132
Arg of perigee:   226.6312 deg
Mean anomaly:     132.7027 deg
Mean motion:   14.53481094 rev/day
Decay rate:       -4.9e-07 rev/day^2
Epoch rev:           10065
Checksum:              272

Satellite: CAPE1
Catalog number: 31130
Epoch time:      09070.63600377
Element set:    0550
Inclination:      098.0041 deg
RA of node:       128.2564 deg
Eccentricity:    0.0101868
Arg of perigee:   226.9833 deg
Mean anomaly:     132.2785 deg
Mean motion:   14.52038479 rev/day
Decay rate:      -1.20e-06 rev/day^2
Epoch rev:           10053
Checksum:              267

Satellite: COMPASS
Catalog number: 32787
Epoch time:      09070.64693716
Element set:    0305
Inclination:      097.9542 deg
RA of node:       135.2510 deg
Eccentricity:    0.0015700
Arg of perigee:   353.8462 deg
Mean anomaly:     006.2530 deg
Mean motion:   14.81559421 rev/day
Decay rate:       1.25e-06 rev/day^2
Epoch rev:           04700
Checksum:              274

Satellite: AAUSAT2
Catalog number: 32788
Epoch time:      09070.89295544
Element set:    0306
Inclination:      097.9547 deg
RA of node:       135.5395 deg
Eccentricity:    0.0015319
Arg of perigee:   355.1736 deg
Mean anomaly:     004.9296 deg
Mean motion:   14.81679666 rev/day
Decay rate:       1.42e-06 rev/day^2
Epoch rev:           04704
Checksum:              337

Satellite: DO-64
Catalog number: 32789
Epoch time:      09070.71004542
Element set:    0314
Inclination:      097.9585 deg
RA of node:       135.4631 deg
Eccentricity:    0.0015602
Arg of perigee:   352.8013 deg
Mean anomaly:     007.2958 deg
Mean motion:   14.81633451 rev/day
Decay rate:       2.59e-06 rev/day^2
Epoch rev:           04701
Checksum:              293

